GEC8923 EDDF-EGLL

Flight info

Callsign GEC8923
Flight time 1h 7m
Altitude 36000
Route OBOKA5G/25C OBOKA Z29 TORNU DCT ABNED L980 LOGAN
Aircraft B77L/H-SDE1E2E3FGHIJ2J3J4J5M1RWXY/LB1D1

Departure

Time 2026-05-06 17:18
Airport Frankfurt Main Airport (EDDF)

Arrival

Time 2026-05-06 18:26
Airport London Heathrow Airport (EGLL)
Time Latitude Longitude Altitude Speed Heading
2026-05-06 16:22 50.04046 8.54757 377 ft 0 kts 70°
2026-05-06 16:23 50.04051 8.54781 377 ft 0 kts 70°
2026-05-06 17:04 50.04049 8.54771 378 ft 2 kts 70°
2026-05-06 17:04 50.04042 8.54741 378 ft 3 kts 70°
2026-05-06 17:05 50.04036 8.54717 378 ft 3 kts 72°
2026-05-06 17:05 50.04032 8.54691 378 ft 3 kts 96°
2026-05-06 17:05 50.04036 8.54667 378 ft 3 kts 127°
2026-05-06 17:05 50.04049 8.54647 378 ft 3 kts 149°
2026-05-06 17:06 50.04067 8.54633 378 ft 3 kts 158°
2026-05-06 17:06 50.04078 8.54626 378 ft 1 kts 159°
2026-05-06 17:06 50.04081 8.54624 378 ft 0 kts 159°
2026-05-06 17:10 50.04051 8.54641 378 ft 12 kts 159°
2026-05-06 17:10 50.03957 8.54706 378 ft 10 kts 126°
2026-05-06 17:10 50.03964 8.54798 378 ft 12 kts 77°
2026-05-06 17:10 50.03975 8.54930 378 ft 10 kts 125°
2026-05-06 17:11 50.03926 8.54987 378 ft 7 kts 158°
2026-05-06 17:11 50.03923 8.54989 378 ft 0 kts 159°
2026-05-06 17:11 50.03903 8.55000 378 ft 0 kts 159°
2026-05-06 17:12 50.03884 8.55012 378 ft 9 kts 159°
2026-05-06 17:12 50.03859 8.55056 378 ft 6 kts 107°
2026-05-06 17:12 50.03873 8.55191 378 ft 18 kts 69°
2026-05-06 17:13 50.03924 8.55408 378 ft 24 kts 69°
2026-05-06 17:13 50.03980 8.55642 378 ft 21 kts 70°
2026-05-06 17:13 50.04034 8.55872 378 ft 24 kts 69°
2026-05-06 17:13 50.04098 8.56132 378 ft 27 kts 69°
2026-05-06 17:14 50.04168 8.56421 378 ft 28 kts 70°
2026-05-06 17:14 50.04230 8.56691 378 ft 25 kts 69°
2026-05-06 17:14 50.04287 8.56923 378 ft 22 kts 69°
2026-05-06 17:14 50.04341 8.57148 378 ft 23 kts 71°
2026-05-06 17:15 50.04396 8.57380 378 ft 22 kts 69°
2026-05-06 17:15 50.04445 8.57581 378 ft 19 kts 70°
2026-05-06 17:15 50.04495 8.57795 378 ft 24 kts 69°
2026-05-06 17:15 50.04557 8.58053 378 ft 19 kts 70°
2026-05-06 17:16 50.04608 8.58268 378 ft 24 kts 69°
2026-05-06 17:16 50.04647 8.58431 378 ft 19 kts 69°
2026-05-06 17:16 50.04649 8.58532 378 ft 7 kts 130°
2026-05-06 17:16 50.04602 8.58569 378 ft 10 kts 156°
2026-05-06 17:17 50.04530 8.58584 378 ft 12 kts 182°
2026-05-06 17:17 50.04475 8.58530 378 ft 0 kts 245°
2026-05-06 17:17 50.04470 8.58511 378 ft 9 kts 246°
2026-05-06 17:17 50.04398 8.58205 378 ft 59 kts 250°
2026-05-06 17:18 50.04183 8.57302 378 ft 118 kts 249°
2026-05-06 17:18 50.03837 8.55838 385 ft 167 kts 252°
2026-05-06 17:18 50.03448 8.54034 795 ft 180 kts 253°
2026-05-06 17:18 50.02995 8.52175 1480 ft 184 kts 253°
2026-05-06 17:19 50.02727 8.50243 2271 ft 180 kts 266°
2026-05-06 17:19 50.02722 8.48327 3112 ft 178 kts 274°
2026-05-06 17:19 50.02839 8.46382 3822 ft 186 kts 278°
2026-05-06 17:19 50.02948 8.44252 4277 ft 209 kts 271°
2026-05-06 17:20 50.02804 8.41871 4555 ft 237 kts 263°
2026-05-06 17:20 50.02489 8.39189 4893 ft 265 kts 259°
2026-05-06 17:20 50.02101 8.36336 5866 ft 266 kts 259°
2026-05-06 17:20 50.01740 8.33549 7046 ft 261 kts 259°
2026-05-06 17:21 50.01478 8.30746 7981 ft 265 kts 269°
2026-05-06 17:21 50.02029 8.28005 8707 ft 275 kts 299°
2026-05-06 17:21 50.03097 8.25534 9648 ft 275 kts 294°
2026-05-06 17:21 50.03561 8.22654 10329 ft 281 kts 271°
2026-05-06 17:22 50.03608 8.19530 10769 ft 301 kts 276°
2026-05-06 17:22 50.04193 8.16271 11153 ft 324 kts 289°
2026-05-06 17:22 50.05195 8.13024 11570 ft 346 kts 298°
2026-05-06 17:22 50.06659 8.09854 12138 ft 363 kts 307°
2026-05-06 17:23 50.08312 8.06895 12662 ft 378 kts 309°
2026-05-06 17:23 50.10103 8.03779 12873 ft 385 kts 309°
2026-05-06 17:23 50.11818 8.00615 12813 ft 379 kts 307°
2026-05-06 17:23 50.13483 7.97404 13151 ft 385 kts 306°
2026-05-06 17:24 50.15151 7.94127 14044 ft 388 kts 306°
2026-05-06 17:24 50.16830 7.90823 14855 ft 393 kts 306°
2026-05-06 17:24 50.18551 7.87439 15701 ft 397 kts 306°
2026-05-06 17:24 50.20266 7.84068 16455 ft 402 kts 306°
2026-05-06 17:25 50.22018 7.80624 17173 ft 408 kts 306°
2026-05-06 17:25 50.23901 7.77241 17846 ft 414 kts 313°
2026-05-06 17:25 50.26134 7.74325 18537 ft 421 kts 322°
2026-05-06 17:25 50.28551 7.71689 19233 ft 425 kts 325°
2026-05-06 17:26 50.31172 7.69495 19875 ft 432 kts 335°
2026-05-06 17:26 50.34000 7.67822 20552 ft 436 kts 337°
2026-05-06 17:26 50.35456 7.66935 20929 ft 437 kts 337°
2026-05-06 17:26 50.38381 7.65146 21562 ft 443 kts 336°
2026-05-06 17:27 50.41172 7.63248 22242 ft 445 kts 334°
2026-05-06 17:27 50.44039 7.61173 22883 ft 450 kts 333°
2026-05-06 17:27 50.46891 7.59135 23515 ft 454 kts 334°
2026-05-06 17:27 50.49789 7.57121 24122 ft 458 kts 334°
2026-05-06 17:28 50.52723 7.55095 24689 ft 463 kts 334°
2026-05-06 17:28 50.55633 7.52901 25283 ft 466 kts 330°
2026-05-06 17:28 50.58442 7.50391 25871 ft 469 kts 327°
2026-05-06 17:28 50.61198 7.47637 26456 ft 473 kts 324°
2026-05-06 17:29 50.63952 7.44719 27052 ft 477 kts 323°
2026-05-06 17:29 50.66722 7.41826 27630 ft 481 kts 324°
2026-05-06 17:29 50.69540 7.38889 28182 ft 485 kts 322°
2026-05-06 17:29 50.72157 7.35440 28667 ft 487 kts 313°
2026-05-06 17:30 50.74379 7.31488 29251 ft 487 kts 306°
2026-05-06 17:30 50.76466 7.27302 29799 ft 489 kts 303°
2026-05-06 17:30 50.78340 7.22739 30397 ft 488 kts 297°
2026-05-06 17:30 50.79881 7.17956 31155 ft 482 kts 292°
2026-05-06 17:31 50.80612 7.15432 31535 ft 481 kts 292°
2026-05-06 17:31 50.82033 7.10637 32165 ft 481 kts 293°
2026-05-06 17:31 50.83518 7.05930 32800 ft 479 kts 294°
2026-05-06 17:31 50.85115 7.01283 33388 ft 478 kts 295°
2026-05-06 17:32 50.86617 6.96598 33922 ft 477 kts 293°
2026-05-06 17:32 50.88093 6.91879 34424 ft 477 kts 294°
2026-05-06 17:32 50.89579 6.87189 34910 ft 476 kts 294°
2026-05-06 17:32 50.91039 6.82597 35361 ft 477 kts 294°
2026-05-06 17:33 50.92540 6.77874 35753 ft 478 kts 294°
2026-05-06 17:33 50.95513 6.68515 35852 ft 475 kts 294°
2026-05-06 17:34 50.98484 6.59143 35859 ft 475 kts 294°
2026-05-06 17:34 51.01521 6.49807 35863 ft 475 kts 295°
2026-05-06 17:35 51.04529 6.40459 35868 ft 475 kts 294°
2026-05-06 17:35 51.07465 6.31071 35871 ft 475 kts 294°
2026-05-06 17:36 51.11889 6.16880 35873 ft 474 kts 294°
2026-05-06 17:36 51.14497 6.07333 35873 ft 472 kts 286°
2026-05-06 17:37 51.16134 5.97224 35876 ft 470 kts 281°
2026-05-06 17:37 51.17694 5.87072 35876 ft 472 kts 282°
2026-05-06 17:38 51.18909 5.80647 35877 ft 473 kts 288°
2026-05-06 17:38 51.20827 5.72915 35876 ft 474 kts 291°
2026-05-06 17:39 51.23329 5.63756 35876 ft 473 kts 291°
2026-05-06 17:39 51.25915 5.54073 35876 ft 474 kts 291°
2026-05-06 17:40 51.28444 5.44365 35876 ft 473 kts 290°
2026-05-06 17:40 51.30956 5.34626 35880 ft 473 kts 290°
2026-05-06 17:41 51.33515 5.24936 35882 ft 474 kts 291°
2026-05-06 17:41 51.36059 5.15282 35885 ft 473 kts 291°
2026-05-06 17:42 51.38592 5.05491 35891 ft 473 kts 290°
2026-05-06 17:42 51.41084 4.95775 35897 ft 474 kts 290°
2026-05-06 17:43 51.43577 4.85997 35904 ft 473 kts 290°
2026-05-06 17:43 51.46060 4.76213 35903 ft 473 kts 290°
2026-05-06 17:44 51.48529 4.66436 35903 ft 473 kts 290°
2026-05-06 17:44 51.50994 4.56637 35904 ft 473 kts 290°
2026-05-06 17:45 51.53380 4.47106 35905 ft 473 kts 290°
2026-05-06 17:45 51.55828 4.37286 35906 ft 473 kts 290°
2026-05-06 17:46 51.58220 4.27650 35907 ft 472 kts 290°
2026-05-06 17:46 51.60653 4.17804 35909 ft 472 kts 290°
2026-05-06 17:47 51.63069 4.07987 35911 ft 472 kts 290°
2026-05-06 17:47 51.65475 3.98165 35914 ft 471 kts 290°
2026-05-06 17:48 51.67873 3.88330 35919 ft 472 kts 290°
2026-05-06 17:48 51.69614 3.81163 35922 ft 472 kts 290°
2026-05-06 17:49 51.72000 3.71298 35926 ft 472 kts 290°
2026-05-06 17:49 51.74389 3.61524 35930 ft 472 kts 290°
2026-05-06 17:50 51.76777 3.51686 35933 ft 472 kts 290°
2026-05-06 17:50 51.79126 3.41755 35933 ft 472 kts 289°
2026-05-06 17:51 51.81451 3.31876 35934 ft 472 kts 289°
2026-05-06 17:51 51.83391 3.23611 35933 ft 472 kts 289°
2026-05-06 17:52 51.84771 3.11502 35934 ft 469 kts 269°
2026-05-06 17:52 51.84250 3.02974 35938 ft 468 kts 261°
2026-05-06 17:53 51.83302 2.91862 35936 ft 469 kts 263°
2026-05-06 17:53 51.82708 2.83088 35938 ft 469 kts 263°
2026-05-06 17:54 51.81999 2.72584 35940 ft 469 kts 263°
2026-05-06 17:54 51.81309 2.62097 35942 ft 469 kts 264°
2026-05-06 17:55 51.80971 2.56884 35728 ft 466 kts 263°
2026-05-06 17:55 51.80612 2.51701 35283 ft 461 kts 263°
2026-05-06 17:55 51.80246 2.46570 34667 ft 460 kts 263°
2026-05-06 17:55 51.79877 2.41447 34041 ft 460 kts 263°
2026-05-06 17:56 51.79506 2.36313 33401 ft 460 kts 263°
2026-05-06 17:56 51.79133 2.31158 32757 ft 460 kts 263°
2026-05-06 17:56 51.78764 2.26051 32118 ft 459 kts 263°
2026-05-06 17:56 51.78398 2.20914 31476 ft 458 kts 263°
2026-05-06 17:57 51.78083 2.15808 30824 ft 457 kts 264°
2026-05-06 17:57 51.77806 2.10703 30251 ft 454 kts 264°
2026-05-06 17:57 51.77557 2.05641 29728 ft 450 kts 264°
2026-05-06 17:57 51.77284 2.00681 29167 ft 447 kts 263°
2026-05-06 17:58 51.76981 1.95650 28586 ft 444 kts 263°
2026-05-06 17:58 51.76670 1.90687 28014 ft 442 kts 263°
2026-05-06 17:58 51.76359 1.85762 27450 ft 439 kts 263°
2026-05-06 17:58 51.76054 1.80946 26903 ft 436 kts 263°
2026-05-06 17:59 51.75741 1.76026 26345 ft 433 kts 263°
2026-05-06 17:59 51.75435 1.71205 25796 ft 430 kts 263°
2026-05-06 17:59 51.75130 1.66403 25327 ft 425 kts 263°
2026-05-06 17:59 51.74832 1.61704 25130 ft 418 kts 263°
2026-05-06 18:00 51.74535 1.57089 24579 ft 416 kts 263°
2026-05-06 18:00 51.74228 1.52423 23724 ft 421 kts 263°
2026-05-06 18:00 51.73916 1.47709 23127 ft 419 kts 263°
2026-05-06 18:00 51.73634 1.43057 22514 ft 417 kts 264°
2026-05-06 18:01 51.73362 1.38324 21867 ft 416 kts 264°
2026-05-06 18:01 51.73074 1.33753 21256 ft 414 kts 264°
2026-05-06 18:01 51.72765 1.29128 20626 ft 413 kts 263°
2026-05-06 18:01 51.72448 1.24535 20006 ft 411 kts 263°
2026-05-06 18:02 51.72131 1.19958 19384 ft 409 kts 263°
2026-05-06 18:02 51.71809 1.15347 18763 ft 407 kts 263°
2026-05-06 18:02 51.71497 1.10887 18155 ft 405 kts 264°
2026-05-06 18:02 51.71178 1.06331 17529 ft 398 kts 264°
2026-05-06 18:03 51.70879 1.02056 16959 ft 379 kts 264°
2026-05-06 18:03 51.70590 0.97921 16398 ft 363 kts 264°
2026-05-06 18:03 51.70319 0.94004 16226 ft 339 kts 264°
2026-05-06 18:03 51.70078 0.90349 15980 ft 319 kts 264°
2026-05-06 18:04 51.69840 0.86888 15800 ft 300 kts 264°
2026-05-06 18:04 51.69642 0.83550 15460 ft 301 kts 265°
2026-05-06 18:04 51.69397 0.80199 15264 ft 304 kts 264°
2026-05-06 18:04 51.69131 0.76791 15209 ft 301 kts 264°
2026-05-06 18:05 51.68885 0.73450 15130 ft 301 kts 264°
2026-05-06 18:05 51.68637 0.70016 15118 ft 306 kts 264°
2026-05-06 18:05 51.68396 0.66585 15118 ft 311 kts 264°
2026-05-06 18:05 51.68151 0.63098 15117 ft 315 kts 264°
2026-05-06 18:06 51.67899 0.59613 15116 ft 320 kts 264°
2026-05-06 18:06 51.67634 0.56000 15115 ft 324 kts 264°
2026-05-06 18:06 51.67371 0.52406 15112 ft 328 kts 264°
2026-05-06 18:06 51.67101 0.48716 15110 ft 331 kts 264°
2026-05-06 18:07 51.66839 0.45036 14980 ft 329 kts 263°
2026-05-06 18:07 51.66441 0.41444 14938 ft 317 kts 259°
2026-05-06 18:07 51.65978 0.38068 14748 ft 310 kts 258°
2026-05-06 18:07 51.65497 0.34634 14322 ft 311 kts 258°
2026-05-06 18:08 51.65021 0.31262 13828 ft 315 kts 258°
2026-05-06 18:08 51.64542 0.27860 13325 ft 308 kts 258°
2026-05-06 18:08 51.64068 0.24517 12819 ft 300 kts 258°
2026-05-06 18:08 51.63606 0.21283 12317 ft 293 kts 258°
2026-05-06 18:09 51.63155 0.18153 11822 ft 287 kts 258°
2026-05-06 18:09 51.62704 0.15018 11323 ft 289 kts 258°
2026-05-06 18:09 51.62247 0.11802 10818 ft 294 kts 258°
2026-05-06 18:09 51.61794 0.08571 10320 ft 300 kts 258°
2026-05-06 18:10 51.61337 0.05264 9818 ft 305 kts 258°
2026-05-06 18:10 51.60881 0.01934 9341 ft 308 kts 258°
2026-05-06 18:10 51.60439 -0.01317 9267 ft 297 kts 258°
2026-05-06 18:10 51.59979 -0.04555 9233 ft 287 kts 258°
2026-05-06 18:11 51.59529 -0.07660 9043 ft 282 kts 258°
2026-05-06 18:11 51.59081 -0.10738 8759 ft 280 kts 258°
2026-05-06 18:11 51.58641 -0.13773 8484 ft 278 kts 258°
2026-05-06 18:11 51.58206 -0.16788 8215 ft 276 kts 258°
2026-05-06 18:12 51.57776 -0.19787 8035 ft 269 kts 258°
2026-05-06 18:12 51.57362 -0.22652 7975 ft 258 kts 258°
2026-05-06 18:12 51.56958 -0.25435 7981 ft 252 kts 258°
2026-05-06 18:12 51.56563 -0.28146 8002 ft 247 kts 258°
2026-05-06 18:13 51.56176 -0.30797 7991 ft 244 kts 258°
2026-05-06 18:13 51.55790 -0.33439 7988 ft 241 kts 258°
2026-05-06 18:13 51.55419 -0.35974 7996 ft 244 kts 258°
2026-05-06 18:13 51.55030 -0.38635 7995 ft 245 kts 258°
2026-05-06 18:14 51.54638 -0.41314 7994 ft 245 kts 258°
2026-05-06 18:14 51.54248 -0.43965 7994 ft 245 kts 258°
2026-05-06 18:14 51.53858 -0.46629 7994 ft 245 kts 258°
2026-05-06 18:14 51.53470 -0.49266 7994 ft 245 kts 258°
2026-05-06 18:15 51.53091 -0.51948 7992 ft 245 kts 258°
2026-05-06 18:15 51.52829 -0.54671 7992 ft 244 kts 268°
2026-05-06 18:15 51.52825 -0.57356 7965 ft 245 kts 272°
2026-05-06 18:15 51.52878 -0.60120 7626 ft 249 kts 273°
2026-05-06 18:16 51.52932 -0.62856 7311 ft 241 kts 273°
2026-05-06 18:16 51.52981 -0.65534 6918 ft 242 kts 273°
2026-05-06 18:16 51.53029 -0.68276 6517 ft 246 kts 273°
2026-05-06 18:16 51.53078 -0.71010 6121 ft 248 kts 273°
2026-05-06 18:17 51.53127 -0.73823 5716 ft 250 kts 273°
2026-05-06 18:17 51.53176 -0.76621 5323 ft 251 kts 273°
2026-05-06 18:17 51.53223 -0.79403 5085 ft 246 kts 273°
2026-05-06 18:17 51.53268 -0.82074 5019 ft 230 kts 273°
2026-05-06 18:18 51.53308 -0.84523 4990 ft 209 kts 273°
2026-05-06 18:18 51.53327 -0.85808 4978 ft 197 kts 273°
2026-05-06 18:18 51.53359 -0.87994 4997 ft 193 kts 273°
2026-05-06 18:18 51.53370 -0.90165 5000 ft 195 kts 267°
2026-05-06 18:19 51.52849 -0.92172 4982 ft 199 kts 233°
2026-05-06 18:19 51.51658 -0.93292 4994 ft 200 kts 198°
2026-05-06 18:19 51.50296 -0.93342 5009 ft 200 kts 174°
2026-05-06 18:19 51.49072 -0.92328 4994 ft 197 kts 137°
2026-05-06 18:20 51.48371 -0.90503 5012 ft 194 kts 114°
2026-05-06 18:20 51.48039 -0.88399 4874 ft 197 kts 100°
2026-05-06 18:20 51.47863 -0.86232 4616 ft 198 kts 96°
2026-05-06 18:20 51.47738 -0.84008 4347 ft 199 kts 92°
2026-05-06 18:21 51.47674 -0.81776 4076 ft 201 kts 90°
2026-05-06 18:21 51.47656 -0.79510 3806 ft 204 kts 89°
2026-05-06 18:21 51.47657 -0.77228 3535 ft 207 kts 88°
2026-05-06 18:21 51.47663 -0.74913 3257 ft 211 kts 88°
2026-05-06 18:22 51.47668 -0.73331 3062 ft 211 kts 88°
2026-05-06 18:22 51.47676 -0.70998 2785 ft 205 kts 88°
2026-05-06 18:22 51.47683 -0.68754 2520 ft 199 kts 88°
2026-05-06 18:22 51.47690 -0.66590 2258 ft 187 kts 88°
2026-05-06 18:23 51.47697 -0.64549 2004 ft 172 kts 88°
2026-05-06 18:23 51.47703 -0.62698 1779 ft 157 kts 88°
2026-05-06 18:23 51.47708 -0.60972 1589 ft 149 kts 88°
2026-05-06 18:23 51.47714 -0.59364 1404 ft 144 kts 87°
2026-05-06 18:24 51.47720 -0.57752 1254 ft 143 kts 87°
2026-05-06 18:24 51.47725 -0.56139 1026 ft 144 kts 87°
2026-05-06 18:24 51.47725 -0.54577 832 ft 142 kts 89°
2026-05-06 18:24 51.47723 -0.53223 670 ft 139 kts 86°
2026-05-06 18:25 51.47738 -0.51687 491 ft 140 kts 88°
2026-05-06 18:25 51.47745 -0.50107 311 ft 140 kts 89°
2026-05-06 18:25 51.47750 -0.48532 120 ft 141 kts 89°
2026-05-06 18:25 51.47756 -0.47108 97 ft 102 kts 89°
2026-05-06 18:26 51.47763 -0.46223 97 ft 68 kts 90°
2026-05-06 18:26 51.47760 -0.45593 97 ft 34 kts 95°
2026-05-06 18:26 51.47696 -0.45467 97 ft 9 kts 176°
2026-05-06 18:26 51.47649 -0.45465 97 ft 0 kts 181°
2026-05-06 18:28 51.47587 -0.45466 97 ft 17 kts 180°
2026-05-06 18:28 51.47528 -0.45375 97 ft 10 kts 98°
2026-05-06 18:28 51.47522 -0.45251 97 ft 15 kts 90°
2026-05-06 18:29 51.47527 -0.45016 97 ft 26 kts 88°
2026-05-06 18:29 51.47528 -0.44705 97 ft 18 kts 103°
2026-05-06 18:29 51.47481 -0.44577 97 ft 11 kts 150°
2026-05-06 18:29 51.47401 -0.44559 97 ft 12 kts 179°
2026-05-06 18:30 51.47312 -0.44557 97 ft 15 kts 179°
2026-05-06 18:30 51.47198 -0.44555 97 ft 19 kts 179°
2026-05-06 18:30 51.47056 -0.44552 97 ft 22 kts 179°
2026-05-06 18:30 51.46893 -0.44557 97 ft 24 kts 179°
2026-05-06 18:31 51.46843 -0.44556 97 ft 0 kts 179°